Weather History for Bartlesville, OK

Change the Weather History Date:

Thursday, October 10, 2013

  Actual Average Record
Temperature  
Mean Temperature 62 °F -  
Max Temperature 80 °F 75 °F 95 °F (1963)
Min Temperature 46 °F 46 °F 19 °F (2000)
Degree Days  
Heating Degree Days 2    
Growing Degree Days 12 (Base 50)    
Moisture  
Dew Point 54 °F    
Average Humidity 78    
Maximum Humidity 100    
Minimum Humidity 48    
Precipitation  
Precipitation 0.00 in - - ()
Sea Level Pressure  
Sea Level Pressure 29.98 in    
Wind  
Wind Speed 3 mph (SSE)    
Max Wind Speed 14 mph    
Max Gust Speed 23 mph    
Visibility 8 miles    
Events      
Averages and records for this station are not official NWS values.
T = Trace of Precipitation, MM = Missing Value Source: NWS Daily Summary

Daily Weather History Graph

Daily Weather History Graph

Search for Another Location

Airport:

Trip Planner

Search our weather history database for the weather conditions in past years. The results will help you decide how hot, cold, wet, or windy it might be!

Date:

Astronomy

Oct. 10, 2013 Rise Set
Actual Time 7:27 AM CDT 6:54 PM CDT
Civil Twilight 7:01 AM CDT 7:19 PM CDT
Nautical Twilight 6:31 AM CDT 7:49 PM CDT
Astronomical Twilight 6:01 AM CDT 8:19 PM CDT
Moon 1:14 PM CDT (10/10) 11:38 PM CDT (10/10)
Length of Visible Light 12h 18m
Length of Day
11h 26m
Waxing Crescent, 36% of the Moon is Illuminated
Oct 10
Waxing Crescent
Oct 11
First Quarter
Oct 18
Full
Oct 26
Last Quarter
Nov 3
New

Hourly Weather History & Observations

Time (CDT) Temp. Dew Point Humidity Pressure Visibility Wind Dir Wind Speed Gust Speed Precip Events Conditions
12:53 AM 51.1 °F 51.1 °F 100% 30.03 in 4.0 mi Calm Calm - N/A   Clear
1:53 AM 50.0 °F 48.9 °F 96% 30.03 in 6.0 mi Calm Calm - N/A   Clear
2:53 AM 48.9 °F 48.9 °F 100% 30.03 in 8.0 mi Calm Calm - N/A   Clear
3:53 AM 48.9 °F 48.9 °F 100% 30.03 in 5.0 mi Calm Calm - N/A   Clear
4:53 AM 48.0 °F 48.0 °F 100% 30.04 in 5.0 mi Calm Calm - N/A   Clear
5:53 AM 46.9 °F 46.9 °F 100% 30.05 in 5.0 mi Calm Calm - N/A   Clear
6:53 AM 48.9 °F 48.0 °F 97% 30.05 in 5.0 mi Calm Calm - N/A   Clear
7:40 AM 48.2 °F 48.2 °F 100% 30.06 in 2.0 mi Calm Calm - N/A   Clear
7:53 AM 48.0 °F 48.0 °F 100% 30.04 in 3.0 mi Calm Calm - N/A   Clear
8:53 AM 57.0 °F 54.0 °F 89% 30.05 in 9.0 mi SSE 5.8 mph - N/A   Clear
9:53 AM 62.1 °F 55.9 °F 80% 30.07 in 10.0 mi SSE 6.9 mph - N/A   Clear
10:53 AM 69.1 °F 57.9 °F 68% 30.05 in 10.0 mi SSE 8.1 mph - N/A   Clear
11:53 AM 73.9 °F 59.0 °F 59% 30.03 in 10.0 mi South 10.4 mph - N/A   Clear
12:53 PM 79.0 °F 60.1 °F 52% 30.00 in 10.0 mi South 6.9 mph 18.4 mph N/A   Clear
1:53 PM 78.1 °F 60.1 °F 54% 29.97 in 10.0 mi SE 13.8 mph 17.3 mph N/A   Clear
2:53 PM 79.0 °F 60.1 °F 52% 29.94 in 10.0 mi SSE 11.5 mph 23.0 mph N/A   Clear
3:53 PM 79.0 °F 60.1 °F 52% 29.92 in 10.0 mi SSE 12.7 mph 20.7 mph N/A   Clear
4:53 PM 78.1 °F 57.0 °F 48% 29.91 in 10.0 mi SSE 12.7 mph 23.0 mph N/A   Clear
5:53 PM 75.9 °F 57.9 °F 54% 29.89 in 10.0 mi SSE 12.7 mph 19.6 mph N/A   Clear
6:53 PM 72.0 °F 57.9 °F 61% 29.88 in 10.0 mi SSE 8.1 mph - N/A   Clear
7:53 PM 66.9 °F 57.9 °F 73% 29.89 in 10.0 mi SSE 3.5 mph - N/A   Clear
8:53 PM 66.0 °F 57.0 °F 73% 29.89 in 10.0 mi SSE 5.8 mph - N/A   Clear
9:53 PM 64.0 °F 55.9 °F 75% 29.88 in 10.0 mi South 4.6 mph - N/A   Clear
10:53 PM 62.1 °F 55.9 °F 80% 29.87 in 10.0 mi SSE 4.6 mph - N/A   Clear
11:53 PM 61.0 °F 55.9 °F 83% 29.85 in 10.0 mi South 4.6 mph - N/A   Clear